16-06-2022, 00:00:02,    266,    0.0,   13.4,   0.00,   0.00, 1016.7,   58.6, -999.0
16-06-2022, 00:00:12,    266,    0.0,   13.3,   0.00,   0.00, 1016.7,   58.7, -999.0
16-06-2022, 00:00:22,    266,    0.0,   13.4,   0.00,   0.00, 1016.7,   58.6, -999.0
16-06-2022, 00:00:32,    266,    0.0,   13.4,   0.00,   0.00, 1016.7,   58.7, -999.0
16-06-2022, 00:00:42,    266,    0.0,   13.3,   0.00,   0.00, 1016.7,   58.6, -999.0
16-06-2022, 00:00:52,    266,    0.0,   13.3,   0.00,   0.00, 1016.6,   58.7, -999.0
16-06-2022, 00:01:02,    266,    0.0,   13.2,   0.00,   0.00, 1016.7,   58.7, -999.0
16-06-2022, 00:01:12,    266,    0.0,   13.3,   0.00,   0.00, 1016.6,   58.8, -999.0
16-06-2022, 00:01:21,    264,    0.0,   13.3,   0.00,   0.00, 1016.7,   58.9, -999.0
16-06-2022, 00:01:32,    263,    0.0,   13.3,   0.00,   0.00, 1016.7,   58.9, -999.0
16-06-2022, 00:01:42,    263,    0.0,   13.3,   0.00,   0.00, 1016.7,   58.9, -999.0
16-06-2022, 00:01:51,    263,    0.0,   13.3,   0.00,   0.00, 1016.7,   58.9, -999.0
16-06-2022, 00:02:01,    263,    0.0,   13.2,   0.00,   0.00, 1016.7,   58.9, -999.0
16-06-2022, 00:02:11,    264,    0.0,   13.2,   0.00,   0.00, 1016.7,   59.0, -999.0
16-06-2022, 00:02:21,    263,    0.0,   13.2,   0.00,   0.00, 1016.7,   58.9, -999.0
16-06-2022, 00:02:31,    263,    0.0,   13.2,   0.00,   0.00, 1016.7,   59.0, -999.0
16-06-2022, 00:02:41,    263,    0.0,   13.3,   0.00,   0.00, 1016.7,   58.9, -999.0
16-06-2022, 00:02:51,    263,    0.0,   13.2,   0.00,   0.00, 1016.7,   59.1, -999.0
16-06-2022, 00:03:01,    264,    0.0,   13.3,   0.00,   0.00, 1016.7,   58.9, -999.0
16-06-2022, 00:03:11,    263,    0.0,   13.3,   0.00,   0.00, 1016.7,   58.9, -999.0
16-06-2022, 00:03:21,    261,    0.0,   13.3,   0.00,   0.00, 1016.7,   59.0, -999.0
16-06-2022, 00:03:31,    263,    0.0,   13.3,   0.00,   0.00, 1016.7,   59.0, -999.0
16-06-2022, 00:03:41,    263,    0.0,   13.3,   0.00,   0.00, 1016.7,   59.2, -999.0
16-06-2022, 00:03:51,    263,    0.0,   13.3,   0.00,   0.00, 1016.7,   59.1, -999.0
16-06-2022, 00:04:01,    263,    0.0,   13.3,   0.00,   0.00, 1016.7,   59.1, -999.0
16-06-2022, 00:04:11,    263,    0.0,   13.3,   0.00,   0.00, 1016.7,   59.1, -999.0
16-06-2022, 00:04:20,    263,    0.0,   13.3,   0.00,   0.00, 1016.7,   59.1, -999.0
16-06-2022, 00:04:30,    263,    0.0,   13.3,   0.00,   0.00, 1016.7,   59.2, -999.0
16-06-2022, 00:04:41,    263,    0.0,   13.2,   0.00,   0.00, 1016.7,   59.2, -999.0
16-06-2022, 00:04:50,    263,    0.0,   13.3,   0.00,   0.00, 1016.7,   59.2, -999.0
16-06-2022, 00:05:00,    263,    0.0,   13.3,   0.00,   0.00, 1016.7,   59.2, -999.0
16-06-2022, 00:05:10,    263,    0.0,   13.3,   0.00,   0.00, 1016.7,   59.3, -999.0
16-06-2022, 00:05:20,    263,    0.0,   13.3,   0.00,   0.00, 1016.7,   59.2, -999.0
16-06-2022, 00:05:30,    263,    0.0,   13.3,   0.00,   0.00, 1016.7,   59.2, -999.0
16-06-2022, 00:05:40,    263,    0.0,   13.3,   0.00,   0.00, 1016.7,   59.2, -999.0
16-06-2022, 00:05:50,    263,    0.0,   13.3,   0.00,   0.00, 1016.7,   59.3, -999.0
16-06-2022, 00:06:00,    263,    0.0,   13.2,   0.00,   0.00, 1016.7,   59.2, -999.0
16-06-2022, 00:06:10,    263,    0.0,   13.3,   0.00,   0.00, 1016.7,   59.3, -999.0
16-06-2022, 00:06:20,    263,    0.0,   13.2,   0.00,   0.00, 1016.7,   59.2, -999.0
16-06-2022, 00:06:30,    263,    0.0,   13.2,   0.00,   0.00, 1016.7,   59.2, -999.0
16-06-2022, 00:06:40,    263,    0.0,   13.3,   0.00,   0.00, 1016.7,   59.4, -999.0
16-06-2022, 00:06:50,    263,    0.0,   13.2,   0.00,   0.00, 1016.7,   59.3, -999.0
16-06-2022, 00:06:59,    263,    0.0,   13.3,   0.00,   0.00, 1016.7,   59.3, -999.0
16-06-2022, 00:07:10,    263,    0.0,   13.2,   0.00,   0.00, 1016.7,   59.5, -999.0
16-06-2022, 00:07:20,    263,    0.0,   13.2,   0.00,   0.00, 1016.7,   59.4, -999.0
16-06-2022, 00:07:29,    263,    0.0,   13.1,   0.00,   0.00, 1016.7,   59.4, -999.0
16-06-2022, 00:07:39,    263,    0.0,   13.2,   0.00,   0.00, 1016.7,   59.6, -999.0
16-06-2022, 00:07:49,    263,    0.0,   13.3,   0.00,   0.00, 1016.7,   59.5, -999.0
16-06-2022, 00:07:59,    263,    0.0,   13.2,   0.00,   0.00, 1016.7,   59.5, -999.0
16-06-2022, 00:08:09,    263,    0.0,   13.2,   0.00,   0.00, 1016.7,   59.7, -999.0
16-06-2022, 00:08:19,    262,    0.0,   13.3,   0.00,   0.00, 1016.7,   59.7, -999.0
16-06-2022, 00:08:29,    262,    0.0,   13.3,   0.00,   0.00, 1016.7,   59.7, -999.0
16-06-2022, 00:08:39,    262,    0.0,   13.3,   0.00,   0.00, 1016.7,   59.6, -999.0
16-06-2022, 00:08:49,    261,    0.0,   13.3,   0.00,   0.00, 1016.7,   59.6, -999.0
16-06-2022, 00:08:59,    262,    0.0,   13.3,   0.00,   0.00, 1016.7,   59.5, -999.0
16-06-2022, 00:09:09,    262,    0.0,   13.2,   0.00,   0.00, 1016.8,   59.6, -999.0
16-06-2022, 00:09:19,    262,    0.0,   13.3,   0.00,   0.00, 1016.7,   59.7, -999.0
16-06-2022, 00:09:29,    261,    0.0,   13.3,   0.00,   0.00, 1016.7,   59.7, -999.0
16-06-2022, 00:09:39,    262,    0.0,   13.3,   0.00,   0.00, 1016.7,   59.8, -999.0
16-06-2022, 00:09:49,    262,    0.0,   13.3,   0.00,   0.00, 1016.8,   59.7, -999.0
16-06-2022, 00:09:58,    262,    0.0,   13.3,   0.00,   0.00, 1016.7,   59.7, -999.0
16-06-2022, 00:10:08,    262,    0.0,   13.3,   0.00,   0.00, 1016.7,   59.6, -999.0
16-06-2022, 00:10:19,    262,    0.0,   13.2,   0.00,   0.00, 1016.7,   59.6, -999.0
16-06-2022, 00:10:28,    262,    0.0,   13.2,   0.00,   0.00, 1016.7,   59.6, -999.0
16-06-2022, 00:10:38,    262,    0.0,   13.2,   0.00,   0.00, 1016.7,   59.7, -999.0
16-06-2022, 00:10:48,    261,    0.0,   13.3,   0.00,   0.00, 1016.7,   59.7, -999.0
16-06-2022, 00:10:58,    262,    0.0,   13.3,   0.00,   0.00, 1016.7,   59.7, -999.0
16-06-2022, 00:11:08,    262,    0.0,   13.2,   0.00,   0.00, 1016.7,   59.8, -999.0
16-06-2022, 00:11:18,    262,    0.0,   13.2,   0.00,   0.00, 1016.7,   59.9, -999.0
16-06-2022, 00:11:28,    262,    0.0,   13.3,   0.00,   0.00, 1016.7,   59.9, -999.0
16-06-2022, 00:11:38,    262,    0.0,   13.3,   0.00,   0.00, 1016.7,   59.8, -999.0
16-06-2022, 00:11:48,    262,    0.0,   13.3,   0.00,   0.00, 1016.7,   59.9, -999.0
16-06-2022, 00:11:58,    262,    0.0,   13.3,   0.00,   0.00, 1016.7,   60.0, -999.0
16-06-2022, 00:12:08,    260,    0.0,   13.2,   0.00,   0.00, 1016.7,   59.9, -999.0
16-06-2022, 00:12:18,    261,    0.0,   13.2,   0.00,   0.00, 1016.7,   59.9, -999.0
16-06-2022, 00:12:28,    260,    0.0,   13.3,   0.00,   0.00, 1016.8,   59.8, -999.0
16-06-2022, 00:12:37,    260,    0.0,   13.3,   0.00,   0.00, 1016.7,   59.9, -999.0
16-06-2022, 00:12:48,    260,    0.0,   13.2,   0.00,   0.00, 1016.7,   59.9, -999.0
16-06-2022, 00:12:58,    261,    0.0,   13.3,   0.00,   0.00, 1016.7,   59.8, -999.0
16-06-2022, 00:13:07,    260,    0.0,   13.2,   0.00,   0.00, 1016.7,   59.9, -999.0
16-06-2022, 00:13:17,    260,    0.0,   13.2,   0.00,   0.00, 1016.8,   59.9, -999.0
16-06-2022, 00:13:27,    260,    0.0,   13.1,   0.00,   0.00, 1016.7,   60.0, -999.0
16-06-2022, 00:13:37,    261,    0.0,   13.1,   0.00,   0.00, 1016.7,   59.9, -999.0
16-06-2022, 00:13:47,    261,    0.0,   13.2,   0.00,   0.00, 1016.7,   60.0, -999.0
16-06-2022, 00:13:57,    263,    0.0,   13.2,   0.00,   0.00, 1016.7,   60.0, -999.0
16-06-2022, 00:14:07,    261,    0.0,   13.2,   0.00,   0.00, 1016.7,   60.1, -999.0
16-06-2022, 00:14:17,    261,    0.0,   13.3,   0.00,   0.00, 1016.7,   60.1, -999.0
16-06-2022, 00:14:27,    261,    0.0,   13.2,   0.00,   0.00, 1016.7,   60.1, -999.0
16-06-2022, 00:14:37,    261,    0.0,   13.2,   0.00,   0.00, 1016.7,   60.2, -999.0
16-06-2022, 00:14:47,    261,    0.0,   13.1,   0.00,   0.00, 1016.7,   60.1, -999.0
16-06-2022, 00:14:57,    261,    0.0,   13.2,   0.00,   0.00, 1016.7,   60.1, -999.0
16-06-2022, 00:15:07,    260,    0.0,   13.2,   0.00,   0.00, 1016.7,   60.2, -999.0
16-06-2022, 00:15:17,    260,    0.0,   13.2,   0.00,   0.00, 1016.7,   60.3, -999.0
16-06-2022, 00:15:27,    261,    0.0,   13.2,   0.00,   0.00, 1016.7,   60.3, -999.0
16-06-2022, 00:15:36,    260,    0.0,   13.2,   0.00,   0.00, 1016.7,   60.2, -999.0
16-06-2022, 00:15:46,    260,    0.0,   13.2,   0.00,   0.00, 1016.7,   60.2, -999.0
16-06-2022, 00:15:57,    260,    0.0,   13.2,   0.00,   0.00, 1016.7,   60.2, -999.0
16-06-2022, 00:16:06,    260,    0.0,   13.2,   0.00,   0.00, 1016.7,   60.4, -999.0
16-06-2022, 00:16:16,    260,    0.0,   13.2,   0.00,   0.00, 1016.7,   60.2, -999.0
16-06-2022, 00:16:29,    260,    0.0,   13.1,   0.00,   0.00, 1016.7,   60.3, -999.0
16-06-2022, 00:16:36,    260,    0.0,   13.2,   0.00,   0.00, 1016.7,   60.3, -999.0
16-06-2022, 00:16:46,    259,    0.0,   13.1,   0.00,   0.00, 1016.7,   60.4, -999.0
16-06-2022, 00:16:56,    254,    0.0,   13.1,   0.00,   0.00, 1016.7,   60.3, -999.0
16-06-2022, 00:17:06,    265,    0.0,   13.1,   0.00,   0.00, 1016.7,   60.4, -999.0
16-06-2022, 00:17:16,    265,    0.0,   13.1,   0.00,   0.00, 1016.7,   60.4, -999.0
16-06-2022, 00:17:26,    264,    0.0,   13.1,   0.00,   0.00, 1016.7,   60.4, -999.0
16-06-2022, 00:17:36,    264,    0.0,   13.1,   0.00,   0.00, 1016.7,   60.5, -999.0
16-06-2022, 00:17:46,    264,    0.0,   13.1,   0.00,   0.00, 1016.7,   60.5, -999.0
16-06-2022, 00:17:56,    264,    0.0,   13.0,   0.00,   0.00, 1016.7,   60.5, -999.0
16-06-2022, 00:18:06,    264,    0.0,   13.1,   0.00,   0.00, 1016.7,   60.5, -999.0
16-06-2022, 00:18:15,    264,    0.0,   13.1,   0.00,   0.00, 1016.7,   60.6, -999.0
16-06-2022, 00:18:26,    263,    0.0,   13.0,   0.00,   0.00, 1016.7,   60.6, -999.0
16-06-2022, 00:18:36,    263,    0.0,   13.1,   0.00,   0.00, 1016.7,   60.8, -999.0
16-06-2022, 00:18:45,    263,    0.0,   13.1,   0.00,   0.00, 1016.7,   60.8, -999.0
16-06-2022, 00:18:56,    262,    0.0,   13.1,   0.00,   0.00, 1016.7,   60.8, -999.0
16-06-2022, 00:19:06,    263,    0.0,   13.0,   0.00,   0.00, 1016.7,   60.6, -999.0
16-06-2022, 00:19:15,    262,    0.0,   13.1,   0.00,   0.00, 1016.7,   60.6, -999.0
16-06-2022, 00:19:25,    262,    0.0,   13.0,   0.00,   0.00, 1016.7,   60.8, -999.0
16-06-2022, 00:19:35,    257,    0.0,   13.0,   0.00,   0.00, 1016.7,   60.7, -999.0
16-06-2022, 00:19:45,    257,    0.0,   13.1,   0.00,   0.00, 1016.7,   60.8, -999.0
16-06-2022, 00:19:55,    257,    0.0,   13.0,   0.00,   0.00, 1016.7,   60.7, -999.0
16-06-2022, 00:20:05,    257,    0.0,   13.0,   0.00,   0.00, 1016.8,   60.8, -999.0
16-06-2022, 00:20:15,    257,    0.0,   13.0,   0.00,   0.00, 1016.7,   60.9, -999.0
16-06-2022, 00:20:25,    256,    0.0,   13.0,   0.00,   0.00, 1016.7,   60.8, -999.0
16-06-2022, 00:20:35,    257,    0.0,   13.0,   0.00,   0.00, 1016.7,   60.9, -999.0
16-06-2022, 00:20:45,    256,    0.0,   13.0,   0.00,   0.00, 1016.7,   61.0, -999.0
16-06-2022, 00:20:55,    255,    0.0,   13.0,   0.00,   0.00, 1016.7,   61.0, -999.0
16-06-2022, 00:21:05,    256,    0.0,   13.0,   0.00,   0.00, 1016.7,   61.1, -999.0
16-06-2022, 00:21:15,    256,    0.0,   13.0,   0.00,   0.00, 1016.7,   61.1, -999.0
16-06-2022, 00:21:25,    256,    0.0,   13.0,   0.00,   0.00, 1016.7,   61.1, -999.0
16-06-2022, 00:21:35,    256,    0.0,   13.0,   0.00,   0.00, 1016.7,   61.2, -999.0
16-06-2022, 00:21:44,    254,    0.0,   13.0,   0.00,   0.00, 1016.7,   61.0, -999.0
16-06-2022, 00:21:54,    254,    0.0,   13.0,   0.00,   0.00, 1016.7,   61.1, -999.0
16-06-2022, 00:22:05,    254,    0.0,   13.1,   0.00,   0.00, 1016.7,   61.1, -999.0
16-06-2022, 00:22:14,    254,    0.0,   13.1,   0.00,   0.00, 1016.7,   61.1, -999.0
16-06-2022, 00:22:24,    256,    0.0,   13.0,   0.00,   0.00, 1016.7,   61.2, -999.0
16-06-2022, 00:22:34,    256,    0.0,   13.0,   0.00,   0.00, 1016.7,   61.2, -999.0
16-06-2022, 00:22:44,    256,    0.0,   13.0,   0.00,   0.00, 1016.7,   61.2, -999.0
16-06-2022, 00:22:54,    256,    0.0,   13.0,   0.00,   0.00, 1016.7,   61.2, -999.0
16-06-2022, 00:23:04,    256,    0.0,   13.0,   0.00,   0.00, 1016.7,   61.3, -999.0
16-06-2022, 00:23:14,    256,    0.0,   13.0,   0.00,   0.00, 1016.7,   61.2, -999.0
16-06-2022, 00:23:24,    256,    0.0,   13.0,   0.00,   0.00, 1016.7,   61.3, -999.0
16-06-2022, 00:23:34,    256,    0.0,   13.0,   0.00,   0.00, 1016.7,   61.3, -999.0
16-06-2022, 00:23:44,    256,    0.0,   13.0,   0.00,   0.00, 1016.7,   61.3, -999.0
16-06-2022, 00:23:54,    256,    0.0,   13.0,   0.00,   0.00, 1016.7,   61.3, -999.0
16-06-2022, 00:24:04,    256,    0.0,   13.0,   0.00,   0.00, 1016.7,   61.4, -999.0
16-06-2022, 00:24:14,    255,    0.0,   13.0,   0.00,   0.00, 1016.7,   61.3, -999.0
16-06-2022, 00:24:23,    256,    0.0,   13.0,   0.00,   0.00, 1016.7,   61.4, -999.0
16-06-2022, 00:24:34,    256,    0.0,   13.0,   0.00,   0.00, 1016.7,   61.4, -999.0
16-06-2022, 00:24:44,    256,    0.0,   12.9,   0.00,   0.00, 1016.7,   61.4, -999.0
16-06-2022, 00:24:53,    256,    0.0,   12.9,   0.00,   0.00, 1016.7,   61.5, -999.0
16-06-2022, 00:25:03,    256,    0.0,   13.0,   0.00,   0.00, 1016.7,   61.4, -999.0
16-06-2022, 00:25:14,    256,    0.0,   13.0,   0.00,   0.00, 1016.7,   61.4, -999.0
16-06-2022, 00:25:23,    256,    0.0,   13.0,   0.00,   0.00, 1016.7,   61.4, -999.0
16-06-2022, 00:25:33,    256,    0.0,   13.0,   0.00,   0.00, 1016.7,   61.5, -999.0
16-06-2022, 00:25:43,    255,    0.0,   13.0,   0.00,   0.00, 1016.7,   61.5, -999.0
16-06-2022, 00:25:53,    256,    0.0,   13.0,   0.00,   0.00, 1016.7,   61.4, -999.0
16-06-2022, 00:26:03,    275,    0.0,   13.0,   0.00,   0.00, 1016.7,   61.6, -999.0
16-06-2022, 00:26:13,    275,    0.0,   13.0,   0.00,   0.00, 1016.7,   61.7, -999.0
16-06-2022, 00:26:23,    274,    0.0,   13.0,   0.00,   0.00, 1016.7,   61.8, -999.0
16-06-2022, 00:26:33,    272,    0.0,   13.0,   0.00,   0.00, 1016.7,   61.7, -999.0
16-06-2022, 00:26:43,    278,    0.0,   13.0,   0.00,   0.00, 1016.7,   61.6, -999.0
16-06-2022, 00:26:53,    279,    0.0,   13.0,   0.00,   0.00, 1016.7,   61.5, -999.0
16-06-2022, 00:27:03,    256,    0.0,   13.0,   0.00,   0.00, 1016.7,   61.5, -999.0
16-06-2022, 00:27:13,    255,    0.0,   12.9,   0.00,   0.00, 1016.7,   61.7, -999.0
16-06-2022, 00:27:23,    255,    0.0,   12.9,   0.00,   0.00, 1016.8,   61.6, -999.0
16-06-2022, 00:27:32,    255,    0.0,   12.9,   0.00,   0.00, 1016.7,   61.6, -999.0
16-06-2022, 00:27:43,    255,    0.0,   12.9,   0.00,   0.00, 1016.7,   61.7, -999.0
16-06-2022, 00:27:52,    255,    0.0,   13.0,   0.00,   0.00, 1016.7,   61.9, -999.0
16-06-2022, 00:28:02,    256,    0.0,   13.0,   0.00,   0.00, 1016.7,   61.8, -999.0
16-06-2022, 00:28:12,    255,    0.0,   12.9,   0.00,   0.00, 1016.7,   61.8, -999.0
16-06-2022, 00:28:22,    255,    0.0,   12.9,   0.00,   0.00, 1016.7,   61.9, -999.0
16-06-2022, 00:28:32,    256,    0.0,   12.9,   0.00,   0.00, 1016.7,   61.9, -999.0
16-06-2022, 00:28:42,    255,    0.0,   12.9,   0.00,   0.00, 1016.7,   61.9, -999.0
16-06-2022, 00:28:52,    257,    0.0,   12.9,   0.00,   0.00, 1016.7,   61.8, -999.0
16-06-2022, 00:29:02,    257,    0.0,   12.9,   0.00,   0.00, 1016.7,   62.0, -999.0
16-06-2022, 00:29:12,    258,    0.0,   12.9,   0.00,   0.00, 1016.7,   62.0, -999.0
16-06-2022, 00:29:22,    256,    0.0,   12.9,   0.00,   0.00, 1016.7,   61.9, -999.0
16-06-2022, 00:29:32,    257,    0.0,   12.9,   0.00,   0.00, 1016.7,   61.9, -999.0
16-06-2022, 00:29:42,    257,    0.0,   13.0,   0.00,   0.00, 1016.7,   61.9, -999.0
16-06-2022, 00:29:52,    257,    0.0,   12.8,   0.00,   0.00, 1016.7,   62.0, -999.0
16-06-2022, 00:30:01,    257,    0.0,   12.8,   0.00,   0.00, 1016.7,   62.0, -999.0
16-06-2022, 00:30:12,    257,    0.0,   12.8,   0.00,   0.00, 1016.7,   62.0, -999.0
16-06-2022, 00:30:22,    257,    0.0,   12.7,   0.00,   0.00, 1016.7,   62.0, -999.0
16-06-2022, 00:30:31,    257,    0.0,   12.9,   0.00,   0.00, 1016.7,   62.1, -999.0
16-06-2022, 00:30:41,    257,    0.0,   12.8,   0.00,   0.00, 1016.7,   62.1, -999.0
16-06-2022, 00:30:52,    257,    0.0,   12.8,   0.00,   0.00, 1016.7,   62.2, -999.0
16-06-2022, 00:31:01,    257,    0.0,   12.8,   0.00,   0.00, 1016.7,   62.2, -999.0
16-06-2022, 00:31:11,    257,    0.0,   12.8,   0.00,   0.00, 1016.7,   62.2, -999.0
16-06-2022, 00:31:21,    257,    0.0,   12.9,   0.00,   0.00, 1016.7,   62.2, -999.0
16-06-2022, 00:31:31,    257,    0.0,   12.8,   0.00,   0.00, 1016.7,   62.2, -999.0
16-06-2022, 00:31:41,    257,    0.0,   12.8,   0.00,   0.00, 1016.7,   62.1, -999.0
16-06-2022, 00:31:51,    257,    0.0,   12.8,   0.00,   0.00, 1016.7,   62.3, -999.0
16-06-2022, 00:32:01,    257,    0.0,   12.8,   0.00,   0.00, 1016.7,   62.3, -999.0
16-06-2022, 00:32:11,    257,    0.0,   12.8,   0.00,   0.00, 1016.8,   62.3, -999.0
16-06-2022, 00:32:21,    257,    0.0,   12.8,   0.00,   0.00, 1016.7,   62.5, -999.0
16-06-2022, 00:32:31,    257,    0.0,   12.8,   0.00,   0.00, 1016.7,   62.5, -999.0
16-06-2022, 00:32:41,    257,    0.0,   12.8,   0.00,   0.00, 1016.8,   62.6, -999.0
16-06-2022, 00:32:51,    257,    0.0,   12.8,   0.00,   0.00, 1016.7,   62.5, -999.0
16-06-2022, 00:33:01,    257,    0.0,   12.8,   0.00,   0.00, 1016.7,   62.4, -999.0
16-06-2022, 00:33:10,    257,    0.0,   12.7,   0.00,   0.00, 1016.7,   62.5, -999.0
16-06-2022, 00:33:21,    276,    0.0,   12.7,   0.00,   0.00, 1016.8,   62.4, -999.0
16-06-2022, 00:33:30,    274,    0.0,   12.7,   0.00,   0.00, 1016.7,   62.5, -999.0
16-06-2022, 00:33:40,    277,    0.0,   12.7,   0.00,   0.00, 1016.8,   62.8, -999.0
16-06-2022, 00:33:51,    276,    0.0,   12.7,   0.00,   0.00, 1016.7,   62.6, -999.0
16-06-2022, 00:34:00,    276,    0.0,   12.7,   0.00,   0.00, 1016.7,   62.7, -999.0
16-06-2022, 00:34:10,    276,    0.0,   12.7,   0.00,   0.00, 1016.8,   62.7, -999.0
16-06-2022, 00:34:20,    275,    0.0,   12.7,   0.00,   0.00, 1016.7,   62.8, -999.0
16-06-2022, 00:34:30,    275,    0.0,   12.8,   0.00,   0.00, 1016.7,   62.9, -999.0
16-06-2022, 00:34:40,    275,    0.0,   12.8,   0.00,   0.00, 1016.7,   63.0, -999.0
16-06-2022, 00:34:50,    275,    0.0,   12.8,   0.00,   0.00, 1016.7,   62.9, -999.0
16-06-2022, 00:35:00,    275,    0.0,   12.8,   0.00,   0.00, 1016.8,   62.8, -999.0
16-06-2022, 00:35:10,    275,    0.0,   12.7,   0.00,   0.00, 1016.8,   62.7, -999.0
16-06-2022, 00:35:20,    275,    0.0,   12.8,   0.00,   0.00, 1016.8,   62.8, -999.0
16-06-2022, 00:35:30,    275,    0.0,   12.8,   0.00,   0.00, 1016.7,   62.8, -999.0
16-06-2022, 00:35:40,    275,    0.0,   12.7,   0.00,   0.00, 1016.8,   62.8, -999.0
16-06-2022, 00:35:50,    275,    0.0,   12.7,   0.00,   0.00, 1016.8,   62.8, -999.0
16-06-2022, 00:36:00,    275,    0.0,   12.7,   0.00,   0.00, 1016.7,   62.9, -999.0
16-06-2022, 00:36:09,    275,    0.0,   12.7,   0.00,   0.00, 1016.7,   62.8, -999.0
16-06-2022, 00:36:19,    275,    0.0,   12.7,   0.00,   0.00, 1016.7,   62.8, -999.0
16-06-2022, 00:36:30,    275,    0.0,   12.6,   0.00,   0.00, 1016.8,   63.0, -999.0
16-06-2022, 00:36:39,    275,    0.0,   12.7,   0.00,   0.00, 1016.8,   63.0, -999.0
16-06-2022, 00:36:49,    273,    0.0,   12.7,   0.00,   0.00, 1016.7,   63.0, -999.0
16-06-2022, 00:37:00,    274,    0.0,   12.7,   0.00,   0.00, 1016.8,   63.1, -999.0
16-06-2022, 00:37:09,    273,    0.0,   12.6,   0.00,   0.00, 1016.8,   63.2, -999.0
16-06-2022, 00:37:19,    272,    0.0,   12.6,   0.00,   0.00, 1016.8,   63.2, -999.0
16-06-2022, 00:37:29,    272,    0.0,   12.7,   0.00,   0.00, 1016.8,   63.2, -999.0
16-06-2022, 00:37:39,    272,    0.0,   12.7,   0.00,   0.00, 1016.8,   63.3, -999.0
16-06-2022, 00:37:49,    272,    0.0,   12.7,   0.00,   0.00, 1016.7,   63.2, -999.0
16-06-2022, 00:37:59,    272,    0.0,   12.7,   0.00,   0.00, 1016.8,   63.3, -999.0
16-06-2022, 00:38:09,    270,    0.0,   12.7,   0.00,   0.00, 1016.8,   63.4, -999.0
16-06-2022, 00:38:19,    270,    0.0,   12.6,   0.00,   0.00, 1016.8,   63.3, -999.0
16-06-2022, 00:38:29,    271,    0.0,   12.7,   0.00,   0.00, 1016.7,   63.4, -999.0
16-06-2022, 00:38:39,    270,    0.0,   12.7,   0.00,   0.00, 1016.7,   63.3, -999.0
16-06-2022, 00:38:49,    270,    0.0,   12.7,   0.00,   0.00, 1016.8,   63.4, -999.0
16-06-2022, 00:38:59,    271,    0.0,   12.7,   0.00,   0.00, 1016.8,   63.5, -999.0
16-06-2022, 00:39:09,    270,    0.0,   12.6,   0.00,   0.00, 1016.7,   63.5, -999.0
16-06-2022, 00:39:18,    270,    0.0,   12.6,   0.00,   0.00, 1016.7,   63.5, -999.0
16-06-2022, 00:39:29,    270,    0.0,   12.6,   0.00,   0.00, 1016.7,   63.4, -999.0
16-06-2022, 00:39:38,    270,    0.0,   12.6,   0.00,   0.00, 1016.8,   63.5, -999.0
16-06-2022, 00:39:50,    270,    0.0,   12.7,   0.00,   0.00, 1016.7,   63.5, -999.0
16-06-2022, 00:39:58,    270,    0.0,   12.5,   0.00,   0.00, 1016.7,   63.7, -999.0
16-06-2022, 00:40:08,    270,    0.0,   12.6,   0.00,   0.00, 1016.7,   63.6, -999.0
16-06-2022, 00:40:18,    270,    0.0,   12.4,   0.00,   0.00, 1016.7,   63.7, -999.0
16-06-2022, 00:40:28,    270,    0.0,   12.6,   0.00,   0.00, 1016.7,   63.6, -999.0
16-06-2022, 00:40:38,    270,    0.0,   12.5,   0.00,   0.00, 1016.7,   63.8, -999.0
16-06-2022, 00:40:48,    270,    0.0,   12.5,   0.00,   0.00, 1016.7,   63.7, -999.0
16-06-2022, 00:40:58,    272,    0.0,   12.5,   0.00,   0.00, 1016.7,   63.8, -999.0
16-06-2022, 00:41:08,    272,    0.0,   12.6,   0.00,   0.00, 1016.7,   63.8, -999.0
16-06-2022, 00:41:18,    272,    0.0,   12.5,   0.00,   0.00, 1016.7,   63.7, -999.0
16-06-2022, 00:41:28,    272,    0.0,   12.5,   0.00,   0.00, 1016.7,   63.9, -999.0
16-06-2022, 00:41:38,    273,    0.0,   12.5,   0.00,   0.00, 1016.7,   63.8, -999.0
16-06-2022, 00:41:47,    272,    0.0,   12.5,   0.00,   0.00, 1016.7,   63.9, -999.0
16-06-2022, 00:41:58,    272,    0.0,   12.4,   0.00,   0.00, 1016.7,   63.9, -999.0
16-06-2022, 00:42:08,    272,    0.0,   12.4,   0.00,   0.00, 1016.7,   63.9, -999.0
16-06-2022, 00:42:17,    272,    0.0,   12.5,   0.00,   0.00, 1016.7,   63.9, -999.0
16-06-2022, 00:42:27,    272,    0.0,   12.5,   0.00,   0.00, 1016.7,   64.0, -999.0
16-06-2022, 00:42:38,    272,    0.0,   12.4,   0.00,   0.00, 1016.7,   64.0, -999.0
16-06-2022, 00:42:47,    272,    0.0,   12.4,   0.00,   0.00, 1016.7,   64.0, -999.0
16-06-2022, 00:42:57,    272,    0.0,   12.4,   0.00,   0.00, 1016.7,   64.2, -999.0
16-06-2022, 00:43:07,    270,    0.0,   12.5,   0.00,   0.00, 1016.7,   64.3, -999.0
16-06-2022, 00:43:17,    269,    0.0,   12.5,   0.00,   0.00, 1016.7,   64.1, -999.0
16-06-2022, 00:43:27,    261,    0.0,   12.4,   0.00,   0.00, 1016.7,   64.1, -999.0
16-06-2022, 00:43:37,    255,    0.0,   12.4,   0.00,   0.00, 1016.7,   64.1, -999.0
16-06-2022, 00:43:47,    255,    0.0,   12.4,   0.00,   0.00, 1016.7,   64.2, -999.0
16-06-2022, 00:43:57,    260,    0.0,   12.5,   0.00,   0.00, 1016.7,   64.2, -999.0
16-06-2022, 00:44:07,    260,    0.0,   12.4,   0.00,   0.00, 1016.7,   64.3, -999.0
16-06-2022, 00:44:17,    260,    0.0,   12.4,   0.00,   0.00, 1016.7,   64.3, -999.0
16-06-2022, 00:44:27,    260,    0.0,   12.4,   0.00,   0.00, 1016.7,   64.3, -999.0
16-06-2022, 00:44:37,    260,    0.0,   12.4,   0.00,   0.00, 1016.7,   64.3, -999.0
16-06-2022, 00:44:47,    259,    0.0,   12.4,   0.00,   0.00, 1016.7,   64.4, -999.0
16-06-2022, 00:44:56,    260,    0.0,   12.4,   0.00,   0.00, 1016.7,   64.3, -999.0
16-06-2022, 00:45:07,    260,    0.0,   12.4,   0.00,   0.00, 1016.7,   64.4, -999.0
16-06-2022, 00:45:17,    257,    0.0,   12.4,   0.00,   0.00, 1016.7,   64.3, -999.0
16-06-2022, 00:45:26,    257,    0.0,   12.4,   0.00,   0.00, 1016.7,   64.4, -999.0
16-06-2022, 00:45:36,    258,    0.0,   12.4,   0.00,   0.00, 1016.7,   64.5, -999.0
16-06-2022, 00:45:46,    258,    0.0,   12.4,   0.00,   0.00, 1016.7,   64.5, -999.0
16-06-2022, 00:45:56,    259,    0.0,   12.4,   0.00,   0.00, 1016.7,   64.5, -999.0
16-06-2022, 00:46:06,    259,    0.0,   12.4,   0.00,   0.00, 1016.7,   64.7, -999.0
16-06-2022, 00:46:16,    259,    0.0,   12.3,   0.00,   0.00, 1016.7,   64.6, -999.0
16-06-2022, 00:46:26,    258,    0.0,   12.3,   0.00,   0.00, 1016.7,   64.6, -999.0
16-06-2022, 00:46:36,    258,    0.0,   12.3,   0.00,   0.00, 1016.7,   64.6, -999.0